Location: Unspecified
(0.0000°N, 0.0000°E)
Time: 06:54:06
(UTC+00:00)

A-11 Canister half - Pass Details

Date: 19 November 2019
Orbit: 1515 x 1685 km, 47.2° (Epoch: 11 December)

Event Time Altitude Azimuth Distance (km) Brightness Sun altitude
Rises 00:50:12 0° 345° (NNW) 4,872 - -64.9°
Reaches altitude 10° 00:54:28 10° 0° (N) 3,861 - -64.3°
Maximum altitude 01:01:27 22° 47° (NE) 2,995 - -63.1°
Drops below altitude 10° 01:08:16 10° 93° (E) 3,770 - -61.9°
Exits shadow 01:08:46 - 95° (E) 3,876 11.3 -61.8°
Sets 01:12:17 0° 107° (ESE) 4,728 11.9 -61.2°
